This demonstration page uses our WeatherBlox Daily Observations layout. Learn more.

Left ArrowRight Arrow

Hourly Observations for October 17, 2016

Temp ( °F °C ) Dew Point ( °F °C ) Humidity (%) Winds ( mph kmh ) Pressure ( in mb ) Visibility ( mi km ) Precip ( " mm )
12:51 am 00:51 Clear 56 13.3 44 6.7 65 65 E 3 6 29.85 1011 10 16 0.00 0.00
1:51 am 01:51 Clear 57 13.9 42 5.6 58 58 SSE 5 7 29.85 1011 10 16 0.00 0.00
2:51 am 02:51 Clear 56 13.3 42 5.6 60 60 ENE 3 6 29.84 1011 10 16 0.00 0.00
3:51 am 03:51 Clear 55 12.8 40 4.4 57 57 SSE 7 11 29.83 1010 10 16 0.00 0.00
4:51 am 04:51 Clear 53 11.7 41 5 64 64 E 5 7 29.85 1011 10 16 0.00 0.00
5:51 am 05:51 Clear 53 11.7 40 4.4 61 61 SE 3 6 29.86 1011 10 16 0.00 0.00
6:51 am 06:51 Sunny 52 11.1 40 4.4 64 64 SE 3 6 29.87 1012 10 16 0.00 0.00
7:51 am 07:51 Sunny 60 15.6 40 4.4 47 47 Calm 29.88 1012 10 16 0.00 0.00
8:51 am 08:51 Sunny 68 20 41 5 38 38 Calm 29.87 1012 10 16 0.00 0.00
9:51 am 09:51 Sunny 74 23.3 40 4.4 29 29 S 3 6 29.88 1012 10 16 0.00 0.00
10:51 am 10:51 Sunny 77 25 41 5 28 28 Calm 29.86 1011 10 16 0.00 0.00
11:51 am 11:51 Sunny 80 26.7 41 5 25 25 VRB 5 7 29.84 1010 10 16 0.00 0.00
12:51 pm 12:51 Sunny 84 28.9 40 4.4 21 21 VRB 6 9 29.80 1009 10 16 0.00 0.00
1:51 pm 13:51 Sunny 84 28.9 38 3.3 19 19 SW 6 9 29.76 1008 10 16 0.00 0.00
2:51 pm 14:51 Sunny 87 30.6 36 2.2 16 16 WNW 7 11 29.75 1007 10 16 0.00 0.00
3:51 pm 15:51 Sunny 86 30 36 2.2 17 17 W 7 11 29.73 1007 10 16 0.00 0.00
4:51 pm 16:51 Sunny 85 29.4 32 0 15 15 NW 13 20 29.73 1007 10 16 0.00 0.00
5:51 pm 17:51 Clear 78 25.6 31 -0.6 18 18 NW 9 15 29.75 1008 10 16 0.00 0.00
6:51 pm 18:51 Clear 73 22.8 37 2.8 27 27 WSW 5 7 29.78 1008 10 16 0.00 0.03
7:51 pm 19:51 Clear with Light Rain 69 20.6 35 1.7 29 29 W 8 13 29.79 1009 10 16 0.00 0.03
8:51 pm 20:51 Clear 71 21.7 32 0 24 24 WNW 10 17 29.77 1008 10 16 0.00 0.03
9:51 pm 21:51 Clear with Light Rain 66 18.9 33 0.6 29 29 N 5 7 29.79 1009 10 16 0.00 0.03
10:51 pm 22:51 Clear with Light Rain 60 15.6 36 2.2 41 41 Calm 29.81 1009 10 16 0.00 0.03
11:51 pm 23:51 Clear with Light Rain 58 14.4 37 2.8 46 46 SE 5 7 29.82 1010 10 16 0.00 0.03

Powered by AerisWeather